Location: Saint Louis
(38.6272°N, 90.1978°W)
Time: 22:03:23
(UTC-05:00)

ISS - Pass Details

Date: 19 July 2013
Orbit: 402 x 404 km, 51.6° (Epoch: 29 May)

Event Time Altitude Azimuth Distance (km) Brightness Sun altitude
Exits shadow 03:22:38 19° 110° (ESE) 1,091 -1.1 -22.6°
Drops below altitude 10° 03:24:27 10° 81° (E) 1,529 0.1 -22.4°
Sets 03:26:54 0° 64° (ENE) 2,398 1.6 -22.2°
